"2009-08-30 00:00:00",1195489,3.416,127.3,2.972,0.235,19.51,108.126,20.08,20.92,29.53,0,110.7,13.24,20.90,89.3
"2009-08-30 00:00:30",1195490,3.686,138.6,6.557,0.225,19.38,108.1303,20.09,20.93,29.56,0,110.7,13.24,20.92,100.6
"2009-08-30 00:01:00",1195491,3.427,135.3,2.402,0.231,19.33,108.1309,20.1,20.96,29.78,0,110.7,13.24,20.92,97.3
"2009-08-30 00:01:30",1195492,3.292,137.5,2.363,0.239,19.39,108.1516,20.15,20.99,29.42,0,110.7,13.24,20.97,99.5
"2009-08-30 00:02:00",1195493,3.444,156.7,5.301,0.247,19.14,108.1638,20.18,21.03,30.68,0,110.7,13.24,21.00,118.7
"2009-08-30 00:02:30",1195494,3.348,161.8,3.795,0.133,18.96,108.1632,20.18,21.05,32.77,0,110.7,13.24,21.00,123.8
"2009-08-30 00:03:00",1195495,3.318,158,3.615,0.278,19.03,108.1728,20.2,21.08,33.3,0,110.7,13.24,21.03,120.0
"2009-08-30 00:03:30",1195496,2.834,150.2,3.408,0.116,19.32,108.1886,20.24,21.11,31.46,0,110.7,13.24,21.07,112.2
"2009-08-30 00:04:00",1195497,2.768,144.4,1.987,0.203,19.38,108.197,20.26,21.13,30.26,0,110.7,13.24,21.09,106.4
"2009-08-30 00:04:30",1195498,1.803,137.5,4.69,0.265,19.27,108.1975,20.27,21.14,29.89,0,110.7,13.24,21.09,99.5
"2009-08-30 00:05:00",1195499,1.671,132.5,4.842,0.079,19.26,108.1957,20.26,21.17,29.92,0,110.8,13.24,21.08,94.5
"2009-08-30 00:05:30",1195500,2.114,129.8,2.206,0.26,19.24,108.1969,20.26,21.18,29.55,0,110.7,13.24,21.09,91.8
"2009-08-30 00:06:00",1195501,2.046,134.6,1.383,0.128,19.17,108.2033,20.28,21.19,29.63,0,110.7,13.24,21.10,96.6
"2009-08-30 00:06:30",1195502,1.946,135.3,1.233,0.108,19.24,108.2171,20.32,21.22,29.43,0,110.7,13.24,21.14,97.3
"2009-08-30 00:07:00",1195503,1.986,133.7,5.278,0.165,19.42,108.2278,20.34,21.23,28.91,0,110.8,13.24,21.17,95.7
"2009-08-30 00:07:30",1195504,2.291,136.1,2.091,0.287,19.37,108.2313,20.35,21.24,28.63,0,110.8,13.23,21.18,98.1
"2009-08-30 00:08:00",1195505,2.354,131.7,2.375,0.128,19.37,108.2277,20.34,21.27,28.8,0,110.8,13.23,21.17,93.7
"2009-08-30 00:08:30",1195506,2.909,137.7,3.47,0.242,19.47,108.2274,20.34,21.28,28.65,0,110.8,13.23,21.17,99.7
"2009-08-30 00:09:00",1195507,3.706,135.7,3.88,0.384,19.5,108.2288,20.35,21.28,27.97,0,110.8,13.23,21.17,97.7
"2009-08-30 00:09:30",1195508,4.115,133.3,2.165,0.179,19.42,108.2343,20.36,21.3,28.62,0,110.8,13.23,21.18,95.3
"2009-08-30 00:10:00",1195509,4.788,132.6,2.287,0.241,19.43,108.2553,20.41,21.32,29.1,0,110.8,13.23,21.24,94.6
"2009-08-30 00:10:30",1195510,4.497,128.1,4.674,0.618,20.01,108.2599,20.43,21.34,28.14,0,110.8,13.23,21.25,90.1
"2009-08-30 00:11:00",1195511,3.517,132.5,4.659,0.717,20.11,108.2602,20.43,21.35,26.95,0,110.8,13.23,21.25,94.5
"2009-08-30 00:11:30",1195512,3.595,136.6,6.416,0.518,19.9,108.2723,20.46,21.37,27.01,0,110.8,13.23,21.28,98.6
"2009-08-30 00:12:00",1195513,3.533,134.2,1.503,0.172,19.55,108.291,20.51,21.39,28.25,0,110.8,13.23,21.33,96.2
"2009-08-30 00:12:30",1195514,3.283,130.2,1.186,0.129,19.52,108.294,20.51,21.41,28.63,0,110.8,13.23,21.34,92.2
"2009-08-30 00:13:00",1195515,3.243,130.3,2.99,0.087,19.43,108.3001,20.53,21.43,28.96,0,110.8,13.23,21.35,92.3
"2009-08-30 00:13:30",1195516,3.217,126.1,1.724,0.073,19.4,108.3171,20.57,21.47,29.11,0,110.8,13.23,21.40,88.1
"2009-08-30 00:14:00",1195517,3.337,131,2.806,0.179,19.42,108.3229,20.59,21.49,29.13,0,110.8,13.23,21.41,93.0
"2009-08-30 00:14:30",1195518,2.893,130.6,1.826,0.112,19.36,108.322,20.59,21.51,29.13,0,110.8,13.24,21.41,92.6
"2009-08-30 00:15:00",1195519,2.597,125.5,3.881,0.061,19.54,108.3243,20.59,21.52,28.91,0,110.8,13.24,21.42,87.5
"2009-08-30 00:15:30",1195520,2.59,115.3,2.023,0.182,19.54,108.3456,20.65,21.54,28.99,0,110.8,13.23,21.47,77.3
"2009-08-30 00:16:00",1195521,2.342,114.3,3.535,0.109,19.46,108.3533,20.67,21.56,29.22,0,110.8,13.24,21.49,76.3
"2009-08-30 00:16:30",1195522,2.363,114.5,1.744,0.102,19.47,108.3533,20.67,21.58,29.21,0,110.8,13.24,21.49,76.5
"2009-08-30 00:17:00",1195523,2.409,105,5.695,0.105,19.45,108.3551,20.67,21.6,29.48,0,110.8,13.24,21.49,67.0
"2009-08-30 00:17:30",1195524,2.192,123.9,7.878,0.143,19.37,108.3548,20.67,21.63,29.5,0,110.8,13.24,21.49,85.9
"2009-08-30 00:18:00",1195525,2.281,109.2,5.58,0.17,19.45,108.3535,20.67,21.63,29.7,0,110.8,13.24,21.49,71.2
"2009-08-30 00:18:30",1195526,2.018,112,6.117,0.142,19.42,108.3651,20.7,21.65,29.76,0,110.8,13.24,21.52,74.0
"2009-08-30 00:19:00",1195527,1.734,114.8,9.04,0.13,19.38,108.3776,20.73,21.65,29.73,0,110.8,13.24,21.55,76.8
"2009-08-30 00:19:30",1195528,1.943,96.2,3.95,0.194,19.41,108.3838,20.74,21.66,29.83,0,110.8,13.24,21.57,58.2
"2009-08-30 00:20:00",1195529,1.394,89.1,1.981,0.208,19.36,108.3865,20.75,21.68,29.85,0,110.8,13.24,21.58,51.1
"2009-08-30 00:20:30",1195530,1.118,93.4,2.87,0.092,19.37,108.3871,20.75,21.69,29.97,0,110.8,13.24,21.58,55.4
"2009-08-30 00:21:00",1195531,1.222,80.4,3.654,0.102,19.4,108.3871,20.75,21.68,30.02,0,110.8,13.24,21.58,42.4
"2009-08-30 00:21:30",1195532,1.214,78.75,5.542,0.113,19.38,108.3877,20.75,21.67,30.17,0,110.8,13.24,21.58,40.8
"2009-08-30 00:22:00",1195533,0.856,70.66,3.311,0.08,19.36,108.3858,20.75,21.69,30.21,0,110.8,13.24,21.57,32.7
"2009-08-30 00:22:30",1195534,1.179,60.17,3.831,0.125,19.18,108.3837,20.74,21.69,31.23,0,110.8,13.24,21.57,22.2
"2009-08-30 00:23:00",1195535,1.002,47.16,4.508,0.065,19.13,108.3591,20.68,21.67,32.28,0,110.8,13.24,21.51,9.2
"2009-08-30 00:23:30",1195536,0.837,38.67,6.756,0.128,19.03,108.3515,20.66,21.68,33.35,0,110.8,13.24,21.49,0.7
"2009-08-30 00:24:00",1195537,0.539,35.18,4.972,0.142,19.05,108.349,20.66,21.65,33.99,0,110.8,13.24,21.48,357.2
"2009-08-30 00:24:30",1195538,0.556,36.64,18.17,0.265,19.05,108.3223,20.59,21.63,34.75,0,110.8,13.23,21.41,358.6
"2009-08-30 00:25:00",1195539,0.239,335.4,33.82,0.379,19.01,108.3183,20.58,21.59,35.24,0,110.8,13.23,21.40,297.4
"2009-08-30 00:25:30",1195540,2.27,314,7.782,0.551,18.58,108.2973,20.52,21.57,37.76,0,110.8,13.23,21.35,276.0
"2009-08-30 00:26:00",1195541,3.149,308.8,5.02,0.177,18.56,108.2924,20.51,21.55,39.84,0,110.8,13.23,21.33,270.8
"2009-08-30 00:26:30",1195542,3.693,306.6,5.684,0.216,18.7,108.2922,20.51,21.53,40.07,0,110.8,13.23,21.33,268.6
"2009-08-30 00:27:00",1195543,4.457,305.8,3.824,0.416,18.75,108.2925,20.51,21.53,40.1,0,110.8,13.23,21.33,267.8
"2009-08-30 00:27:30",1195544,4.719,304.7,2.059,0.096,18.68,108.2863,20.49,21.53,40.52,0,110.8,13.23,21.32,266.7
"2009-08-30 00:28:00",1195545,4.61,306.7,1.904,0.23,18.84,108.2836,20.49,21.53,40.59,0,110.8,13.23,21.31,268.7
"2009-08-30 00:28:30",1195546,4.111,306.3,4.432,0.201,18.83,108.2824,20.48,21.52,40.7,0,110.8,13.23,21.31,268.3
"2009-08-30 00:29:00",1195547,3.776,311.2,2.986,0.316,18.92,108.2848,20.49,21.52,40.68,0,110.8,13.23,21.31,273.2
"2009-08-30 00:29:30",1195548,3.003,323.3,2.982,0.146,18.93,108.2816,20.48,21.52,40.55,0,110.8,13.23,21.31,285.3
"2009-08-30 00:30:00",1195549,2.66,329.9,4.81,0.172,19.03,108.2752,20.47,21.49,39.89,0,110.8,13.23,21.29,291.9
"2009-08-30 00:30:30",1195550,2.805,337.8,6.622,0.265,18.95,108.2549,20.41,21.48,39.19,0,110.8,13.23,21.24,299.8
"2009-08-30 00:31:00",1195551,3.228,330.8,4.967,0.431,18.77,108.252,20.41,21.46,40.12,0,110.8,13.24,21.23,292.8
"2009-08-30 00:31:30",1195552,3.036,325.7,4.548,0.321,18.93,108.2502,20.4,21.46,40.67,0,110.8,13.24,21.22,287.7
"2009-08-30 00:32:00",1195553,3.514,327.5,2.492,0.202,18.74,108.2517,20.41,21.45,41.16,0,110.8,13.24,21.23,289.5
"2009-08-30 00:32:30",1195554,3.117,324.4,4.549,0.242,18.88,108.2373,20.37,21.42,41.66,0,110.8,13.24,21.19,286.4
"2009-08-30 00:33:00",1195555,2.57,323.1,7.712,0.372,18.83,108.2191,20.32,21.42,41.59,0,110.8,13.24,21.14,285.1
"2009-08-30 00:33:30",1195556,2.562,328.8,3.668,0.388,18.87,108.2188,20.32,21.4,41.49,0,110.8,13.24,21.14,290.8
"2009-08-30 00:34:00",1195557,2.888,326.7,3.233,0.222,18.9,108.2158,20.31,21.39,41.32,0,110.8,13.24,21.14,288.7
"2009-08-30 00:34:30",1195558,2.881,336.3,5.283,0.252,18.8,108.2003,20.27,21.37,41.28,0,110.8,13.24,21.10,298.3
"2009-08-30 00:35:00",1195559,2.881,348.1,3.11,0.217,18.96,108.1854,20.24,21.34,41.47,0,110.8,13.24,21.06,310.1
"2009-08-30 00:35:30",1195560,2.303,355.8,7.564,0.46,18.92,108.1842,20.23,21.32,41.43,0,110.8,13.24,21.05,317.8
"2009-08-30 00:36:00",1195561,2.147,9.43,4.853,0.167,19.11,108.1685,20.19,21.29,40.88,0,110.8,13.24,21.01,331.4
"2009-08-30 00:36:30",1195562,2.368,16.55,6.594,0.208,19,108.1507,20.15,21.28,39.73,0,110.8,13.24,20.97,338.5
"2009-08-30 00:37:00",1195563,2.272,26.87,4.281,0.175,18.97,108.1508,20.15,21.26,39.92,0,110.8,13.25,20.97,348.9
"2009-08-30 00:37:30",1195564,2.099,40.22,2.83,0.15,19.24,108.1302,20.09,21.22,39.17,0,110.8,13.24,20.92,2.2
"2009-08-30 00:38:00",1195565,1.96,40.83,4.201,0.199,19.05,108.123,20.08,21.2,38.56,0,110.8,13.25,20.90,2.8
"2009-08-30 00:38:30",1195566,1.855,60.38,4.7,0.121,19.45,108.121,20.07,21.17,38.95,0,110.8,13.25,20.89,22.4
"2009-08-30 00:39:00",1195567,2.008,69.68,2.309,0.266,19.28,108.1059,20.03,21.13,37.93,0,110.8,13.25,20.85,31.7
"2009-08-30 00:39:30",1195568,2.081,72.19,3.718,0.094,19.35,108.0927,20,21.12,38.8,0,110.8,13.25,20.82,34.2
"2009-08-30 00:40:00",1195569,2.143,72.85,2.174,0.083,19.39,108.0911,19.99,21.1,39.18,0,110.8,13.25,20.82,34.8
"2009-08-30 00:40:30",1195570,2.264,73.53,1.507,0.043,19.28,108.0926,20,21.08,39.96,0,110.8,13.25,20.82,35.5
"2009-08-30 00:41:00",1195571,2.322,73.12,0.877,0.07,19.33,108.0819,19.97,21.06,39.92,0,110.8,13.25,20.79,35.1
"2009-08-30 00:41:30",1195572,2.644,69.67,1.306,0.085,19.28,108.067,19.93,21.04,39.89,0,110.8,13.24,20.75,31.7
"2009-08-30 00:42:00",1195573,2.699,72.36,2.599,0.042,19.33,108.0612,19.92,21.03,39.96,0,110.8,13.24,20.74,34.4
"2009-08-30 00:42:30",1195574,2.604,64.55,7.847,0.099,19.11,108.0613,19.92,21.01,40.18,0,110.8,13.24,20.74,26.6
"2009-08-30 00:43:00",1195575,2.841,64.15,4.581,0.214,19.06,108.0628,19.92,21,40.26,0,110.8,13.24,20.74,26.2
"2009-08-30 00:43:30",1195576,2.922,64.39,4.507,0.163,19.12,108.0631,19.92,20.98,40.73,0,110.8,13.24,20.74,26.4
"2009-08-30 00:44:00",1195577,3.147,70.41,1.087,0.054,19.29,108.0661,19.93,20.99,40.88,0,110.8,13.24,20.75,32.4
"2009-08-30 00:44:30",1195578,3.338,70.51,1.579,0.132,19.24,108.062,19.92,20.97,41.07,0,110.8,13.24,20.74,32.5
"2009-08-30 00:45:00",1195579,3.258,67.48,3.792,0.092,19.14,108.0592,19.91,20.95,41.27,0,110.8,13.24,20.73,29.5
"2009-08-30 00:45:30",1195580,3.301,66.13,2.137,0.091,19.11,108.052,19.89,20.94,41.31,0,110.8,13.24,20.71,28.1
"2009-08-30 00:46:00",1195581,3.434,64.17,2.258,0.089,19.01,108.0402,19.86,20.94,41.28,0,110.8,13.24,20.68,26.2
"2009-08-30 00:46:30",1195582,3.639,65.43,2.197,0.109,19.09,108.0348,19.85,20.92,41.79,0,110.8,13.24,20.67,27.4
"2009-08-30 00:47:00",1195583,3.518,62.83,1.803,0.087,19.13,108.0351,19.85,20.93,42.04,0,110.8,13.25,20.67,24.8
"2009-08-30 00:47:30",1195584,3.935,69.78,3.211,0.121,19.39,108.0348,19.85,20.92,41.96,0,110.8,13.25,20.67,31.8
"2009-08-30 00:48:00",1195585,4.087,69.31,1.88,0.105,19.35,108.0363,19.85,20.9,41.5,0,110.8,13.25,20.67,31.3
"2009-08-30 00:48:30",1195586,3.725,60.05,4.481,0.12,19.28,108.0372,19.86,20.88,41.85,0,110.8,13.25,20.68,22.0
"2009-08-30 00:49:00",1195587,3.485,52.57,1.763,0.087,19.08,108.0378,19.86,20.89,42.71,0,110.8,13.25,20.68,14.6
"2009-08-30 00:49:30",1195588,3.446,49.87,0.887,0.087,19.08,108.0372,19.86,20.88,43.96,0,110.8,13.25,20.68,11.9
"2009-08-30 00:50:00",1195589,3.319,46.28,1.766,0.065,18.91,108.0369,19.85,20.87,44.73,0,110.7,13.25,20.68,8.3
"2009-08-30 00:50:30",1195590,2.895,36.5,3.551,0.329,18.74,108.0327,19.84,20.86,45.44,0,110.8,13.25,20.66,358.5
"2009-08-30 00:51:00",1195591,2.57,28.88,3.457,0.142,18.57,108.0265,19.83,20.86,45.88,0,110.8,13.25,20.65,350.9
"2009-08-30 00:51:30",1195592,2.523,23.25,2.336,0.143,18.46,108.0091,19.78,20.85,46.02,0,110.8,13.25,20.60,345.2
"2009-08-30 00:52:00",1195593,2.843,19.68,2.795,0.216,18.43,108.004,19.77,20.85,46.12,0,110.8,13.25,20.59,341.7
"2009-08-30 00:52:30",1195594,2,13.1,3.857,0.351,18.31,108.004,19.77,20.83,46.1,0,110.7,13.25,20.59,335.1
"2009-08-30 00:53:00",1195595,1.82,12.45,5.493,0.312,18.37,108.004,19.77,20.83,45.91,0,110.7,13.25,20.59,334.5
"2009-08-30 00:53:30",1195596,1.205,6.417,8.7,0.462,18.38,108.004,19.77,20.81,45.79,0,110.7,13.25,20.59,328.4
"2009-08-30 00:54:00",1195597,0.938,6.077,7.76,0.232,18.37,108.0015,19.76,20.78,45.65,0,110.7,13.25,20.58,328.1
"2009-08-30 00:54:30",1195598,0.971,6.435,7.629,0.269,18.34,107.9917,19.74,20.79,45.28,0,110.7,13.25,20.56,328.4
"2009-08-30 00:55:00",1195599,1.485,1.651,7.642,0.389,18.27,107.9776,19.7,20.76,44.66,0,110.7,13.25,20.52,323.7
"2009-08-30 00:55:30",1195600,2.219,358.8,5.466,0.409,18.29,107.9703,19.68,20.74,44.29,0,110.7,13.25,20.50,320.8
"2009-08-30 00:56:00",1195601,2.352,0.298,3.799,0.403,18.3,107.9703,19.68,20.74,43.88,0,110.7,13.25,20.50,322.3
"2009-08-30 00:56:30",1195602,2.374,358.7,2.287,0.299,18.34,107.9593,19.66,20.71,43.64,0,110.7,13.25,20.48,320.7
"2009-08-30 00:57:00",1195603,2.766,358,2.407,0.228,18.39,107.9368,19.6,20.69,43.85,0,110.7,13.25,20.42,320.0
"2009-08-30 00:57:30",1195604,2.951,356.3,2.085,0.246,18.45,107.9337,19.59,20.66,43.99,0,110.7,13.25,20.41,318.3
"2009-08-30 00:58:00",1195605,3.137,356.6,2.693,0.384,18.48,107.9098,19.53,20.63,43.34,0,110.7,13.25,20.35,318.6
"2009-08-30 00:58:30",1195606,3.213,355.9,2.044,0.292,18.52,107.8968,19.49,20.62,42.6,0,110.7,13.25,20.31,317.9
"2009-08-30 00:59:00",1195607,3.701,353.1,1.902,0.39,18.49,107.869,19.42,20.57,42.51,0,110.7,13.25,20.24,315.1
"2009-08-30 00:59:30",1195608,4.456,350.4,1.006,0.164,18.43,107.8557,19.39,20.54,42.28,0,110.7,13.25,20.21,312.4
"2009-08-30 01:00:00",1195609,3.993,352.6,2.513,0.387,18.54,107.8352,19.34,20.51,42.74,0,110.7,13.25,20.16,314.6
"2009-08-30 01:00:30",1195610,4.015,351.5,1.001,0.208,18.59,107.8217,19.3,20.45,43.24,0,110.7,13.25,20.12,313.5
"2009-08-30 01:01:00",1195611,3.401,352.2,1.915,0.273,18.55,107.8014,19.25,20.42,43.4,0,110.7,13.25,20.07,314.2
"2009-08-30 01:01:30",1195612,2.787,355.6,2.729,0.272,18.56,107.7921,19.23,20.38,43.36,0,110.7,13.25,20.05,317.6
"2009-08-30 01:02:00",1195613,2.144,0.09,3.432,0.392,18.52,107.7676,19.16,20.35,43.21,0,110.7,13.25,19.98,322.1
"2009-08-30 01:02:30",1195614,1.752,5.449,3.839,0.261,18.44,107.7654,19.16,20.3,43.05,0,110.7,13.25,19.98,327.4
"2009-08-30 01:03:00",1195615,1.836,5.216,2.776,0.18,18.45,107.7398,19.09,20.28,42.75,0,110.7,13.25,19.91,327.2
"2009-08-30 01:03:30",1195616,2.626,2.648,2.599,0.246,18.46,107.7339,19.08,20.24,42.84,0,110.7,13.25,19.90,324.6
"2009-08-30 01:04:00",1195617,2.876,358.9,3.448,0.278,18.45,107.7277,19.06,20.21,43.03,0,110.7,13.25,19.88,320.9
"2009-08-30 01:04:30",1195618,3.056,356.2,2.66,0.376,18.44,107.7043,19,20.18,42.83,0,110.7,13.26,19.82,318.2
"2009-08-30 01:05:00",1195619,3.678,353.5,2.069,0.377,18.41,107.7001,18.99,20.14,42.62,0,110.7,13.26,19.81,315.5
"2009-08-30 01:05:30",1195620,4.691,349,2.141,0.266,18.31,107.6959,18.98,20.11,42.43,0,110.7,13.26,19.80,311.0
"2009-08-30 01:06:00",1195621,4.673,344.8,1.667,0.144,18.3,107.6708,18.92,20.1,42.55,0,110.7,13.26,19.73,306.8
"2009-08-30 01:06:30",1195622,4.472,343.8,1.889,0.059,18.33,107.6663,18.9,20.07,42.5,0,110.7,13.26,19.72,305.8
"2009-08-30 01:07:00",1195623,4.603,341.1,1.049,0.125,18.29,107.6663,18.9,20.03,42.58,0,110.7,13.26,19.72,303.1
"2009-08-30 01:07:30",1195624,4.586,339.3,2.321,0.095,18.31,107.6658,18.9,20.01,42.65,0,110.7,13.26,19.72,301.3
"2009-08-30 01:08:00",1195625,4.323,337,1.703,0.093,18.34,107.6534,18.87,20,42.67,0,110.7,13.26,19.69,299.0
"2009-08-30 01:08:30",1195626,4.618,338.5,1.636,0.149,18.31,107.6371,18.83,19.98,42.6,0,110.7,13.26,19.65,300.5
"2009-08-30 01:09:00",1195627,4.605,339.4,1.126,0.081,18.36,107.6329,18.82,19.95,42.41,0,110.7,13.26,19.64,301.4
"2009-08-30 01:09:30",1195628,4.37,339.5,1.106,0.189,18.46,107.6326,18.82,19.94,42.6,0,110.7,13.26,19.63,301.5
"2009-08-30 01:10:00",1195629,4.606,339.6,1.119,0.149,18.43,107.6329,18.82,19.92,42.63,0,110.7,13.26,19.64,301.6
"2009-08-30 01:10:30",1195630,4.464,340,0.888,0.098,18.36,107.6255,18.8,19.91,42.75,0,110.7,13.26,19.62,302.0
"2009-08-30 01:11:00",1195631,4.506,341.2,1.063,0.086,18.37,107.6106,18.76,19.89,42.7,0,110.7,13.26,19.58,303.2
"2009-08-30 01:11:30",1195632,4.523,340.6,1.048,0.082,18.38,107.6024,18.74,19.88,42.68,0,110.7,13.26,19.56,302.6
"2009-08-30 01:12:00",1195633,4.626,340,0.815,0.082,18.54,107.6021,18.74,19.86,42.59,0,110.7,13.26,19.56,302.0
"2009-08-30 01:12:30",1195634,4.42,340.5,0.453,0.076,18.39,107.6021,18.74,19.86,42.73,0,110.7,13.26,19.56,302.5
"2009-08-30 01:13:00",1195635,4.335,340.7,0.644,0.087,18.54,107.6033,18.74,19.82,43.18,0,110.7,13.26,19.56,302.7
"2009-08-30 01:13:30",1195636,4.247,341.2,0.56,0.042,18.75,107.6054,18.75,19.83,43.57,0,110.7,13.26,19.56,303.2
"2009-08-30 01:14:00",1195637,4.235,340.2,1.515,0.091,18.72,107.6077,18.75,19.81,43.77,0,110.7,13.26,19.57,302.2
"2009-08-30 01:14:30",1195638,4.35,340.4,1.215,0.075,18.49,107.6085,18.76,19.82,43.75,0,110.7,13.26,19.57,302.4
"2009-08-30 01:15:00",1195639,4.416,342,0.885,0.065,18.44,107.6093,18.76,19.81,43.66,0,110.7,13.26,19.57,304.0
"2009-08-30 01:15:30",1195640,4.432,342.6,0.825,0.046,18.4,107.6046,18.75,19.8,43.38,0,110.7,13.26,19.56,304.6
"2009-08-30 01:16:00",1195641,4.441,341.5,0.865,0.077,18.45,107.6027,18.74,19.79,43.18,0,110.7,13.26,19.56,303.5
"2009-08-30 01:16:30",1195642,4.476,342.2,0.728,0.061,18.49,107.5941,18.72,19.77,43.02,0,110.7,13.26,19.54,304.2
"2009-08-30 01:17:00",1195643,4.425,342,0.811,0.045,18.46,107.59,18.71,19.77,42.92,0,110.7,13.26,19.53,304.0
"2009-08-30 01:17:30",1195644,4.392,340.7,0.538,0.057,18.41,107.5889,18.71,19.77,42.59,0,110.7,13.26,19.52,302.7
"2009-08-30 01:18:00",1195645,4.4,341,0.588,0.057,18.47,107.5904,18.71,19.76,42.64,0,110.7,13.26,19.53,303.0
"2009-08-30 01:18:30",1195646,4.266,339.7,1.415,0.1,18.69,107.5904,18.71,19.75,42.65,0,110.7,13.26,19.53,301.7
"2009-08-30 01:19:00",1195647,4.312,340.8,0.424,0.071,18.65,107.5913,18.71,19.75,42.66,0,110.7,13.26,19.53,302.8
"2009-08-30 01:19:30",1195648,4.18,340.8,0.327,0.064,18.81,107.5923,18.71,19.75,42.42,0,110.7,13.26,19.53,302.8
"2009-08-30 01:20:00",1195649,4.029,339.5,0.545,0.036,18.62,107.5932,18.72,19.74,42.47,0,110.7,13.26,19.53,301.5
"2009-08-30 01:20:30",1195650,3.95,341,2.154,0.13,18.63,107.5944,18.72,19.74,42.89,0,110.7,13.26,19.54,303.0
"2009-08-30 01:21:00",1195651,3.687,344,1.185,0.082,18.68,107.5944,18.72,19.75,44.25,0,110.7,13.26,19.54,306.0
"2009-08-30 01:21:30",1195652,3.802,347.4,2.04,0.076,18.78,107.5986,18.73,19.74,44.92,0,110.7,13.26,19.55,309.4
"2009-08-30 01:22:00",1195653,3.546,350.8,1.644,0.13,18.78,107.5989,18.73,19.74,45.77,0,110.7,13.26,19.55,312.8
"2009-08-30 01:22:30",1195654,3.098,353.1,2.129,0.263,18.83,107.5977,18.73,19.74,46.43,0,110.7,13.26,19.55,315.1
"2009-08-30 01:23:00",1195655,3.05,353.4,2.085,0.158,18.85,107.6001,18.73,19.74,46.45,0,110.7,13.26,19.55,315.4
"2009-08-30 01:23:30",1195656,2.696,355.5,1.485,0.218,18.84,107.6004,18.73,19.75,46.74,0,110.7,13.27,19.55,317.5
"2009-08-30 01:24:00",1195657,2.437,359.5,2.501,0.238,18.88,107.6007,18.74,19.75,47.25,0,110.7,13.27,19.55,321.5
"2009-08-30 01:24:30",1195658,2.681,3.364,2.447,0.342,18.89,107.6013,18.74,19.75,47.38,0,110.7,13.27,19.55,325.4
"2009-08-30 01:25:00",1195659,2.789,8.34,2.938,0.308,18.92,107.6007,18.74,19.75,46.83,0,110.7,13.27,19.55,330.3
"2009-08-30 01:25:30",1195660,2.969,14.79,2.107,0.179,18.99,107.6013,18.74,19.76,46.92,0,110.7,13.27,19.55,336.8
"2009-08-30 01:26:00",1195661,2.816,16.44,2.136,0.217,18.94,107.6013,18.74,19.75,47.14,0,110.7,13.27,19.55,338.4
"2009-08-30 01:26:30",1195662,2.714,20.86,2.2,0.142,18.98,107.6013,18.74,19.74,47.34,0,110.7,13.27,19.55,342.9
"2009-08-30 01:27:00",1195663,2.786,23.84,1.664,0.221,18.97,107.6016,18.74,19.75,47.76,0,110.7,13.27,19.56,345.8
"2009-08-30 01:27:30",1195664,2.726,24.85,1.859,0.14,18.94,107.6016,18.74,19.75,47.82,0,110.7,13.27,19.56,346.9
"2009-08-30 01:28:00",1195665,2.727,21.31,2.019,0.106,18.88,107.6013,18.74,19.75,47.78,0,110.7,13.27,19.55,343.3
"2009-08-30 01:28:30",1195666,2.642,23.07,2.181,0.136,18.94,107.6013,18.74,19.75,47.79,0,110.7,13.27,19.55,345.1
"2009-08-30 01:29:00",1195667,2.555,25.01,2.725,0.25,19.02,107.6016,18.74,19.75,48.03,0,110.7,13.27,19.56,347.0
"2009-08-30 01:29:30",1195668,2.606,25.63,2.461,0.104,19.02,107.6013,18.74,19.76,48.03,0,110.7,13.27,19.55,347.6
"2009-08-30 01:30:00",1195669,2.54,24.4,2.245,0.133,18.98,107.6013,18.74,19.75,48.17,0,110.7,13.27,19.55,346.4
"2009-08-30 01:30:30",1195670,2.619,27.69,1.561,0.161,19.04,107.6013,18.74,19.75,48.21,0,110.7,13.27,19.55,349.7
"2009-08-30 01:31:00",1195671,2.855,28.31,0.951,0.259,19.04,107.6013,18.74,19.75,48.09,0,110.7,13.27,19.55,350.3
"2009-08-30 01:31:30",1195672,2.508,28.91,1.382,0.29,19.08,107.6013,18.74,19.75,48.05,0,110.7,13.27,19.55,350.9
"2009-08-30 01:32:00",1195673,2.491,26.78,4.23,0.325,19,107.6013,18.74,19.75,47.94,0,110.7,13.27,19.55,348.8
"2009-08-30 01:32:30",1195674,2.286,29.78,1.69,0.209,19.09,107.6013,18.74,19.76,48.03,0,110.7,13.26,19.55,351.8
"2009-08-30 01:33:00",1195675,2.132,29.06,2.092,0.201,19.09,107.6013,18.74,19.75,48.07,0,110.7,13.26,19.55,351.1
"2009-08-30 01:33:30",1195676,2.181,30.99,1.98,0.167,19.13,107.6013,18.74,19.76,48.06,0,110.7,13.26,19.55,353.0
"2009-08-30 01:34:00",1195677,2.287,31.11,3.034,0.303,19.09,107.6013,18.74,19.75,47.93,0,110.7,13.26,19.55,353.1
"2009-08-30 01:34:30",1195678,2.137,30.92,1.42,0.112,19.14,107.6013,18.74,19.75,47.91,0,110.7,13.26,19.55,352.9
"2009-08-30 01:35:00",1195679,2.081,30.44,1.438,0.128,19.15,107.6013,18.74,19.76,48.03,0,110.7,13.26,19.55,352.4
"2009-08-30 01:35:30",1195680,2.054,30.01,1.585,0.116,19.17,107.6013,18.74,19.74,48.18,0,110.7,13.26,19.55,352.0
"2009-08-30 01:36:00",1195681,1.933,29.12,1.279,0.104,19.15,107.6013,18.74,19.73,48.19,0,110.7,13.26,19.55,351.1
"2009-08-30 01:36:30",1195682,2.043,29.56,1.885,0.148,19.13,107.6013,18.74,19.73,48.07,0,110.7,13.26,19.55,351.6
"2009-08-30 01:37:00",1195683,2.254,30.2,2.925,0.236,19.1,107.6013,18.74,19.73,47.98,0,110.7,13.27,19.55,352.2
"2009-08-30 01:37:30",1195684,2.771,31.57,4.59,0.46,19.06,107.6011,18.74,19.73,47.93,0,110.7,13.27,19.55,353.6
"2009-08-30 01:38:00",1195685,2.997,34.79,1.113,0.14,19.11,107.5985,18.73,19.73,47.96,0,110.7,13.27,19.55,356.8
"2009-08-30 01:38:30",1195686,2.41,31.78,2.073,0.249,19.11,107.5935,18.72,19.73,47.92,0,110.7,13.27,19.53,353.8
"2009-08-30 01:39:00",1195687,2.051,27.43,1.79,0.082,19.14,107.5915,18.71,19.72,47.95,0,110.6,13.27,19.53,349.4
"2009-08-30 01:39:30",1195688,2.052,30.05,2.007,0.112,19.13,107.5881,18.7,19.71,48.01,0,110.6,13.27,19.52,352.0
"2009-08-30 01:40:00",1195689,2.085,31.07,1.018,0.12,19.14,107.5842,18.69,19.71,48.06,0,110.7,13.27,19.51,353.1
"2009-08-30 01:40:30",1195690,2.121,27.36,3.134,0.142,19.01,107.5805,18.68,19.73,47.93,0,110.6,13.27,19.50,349.4
"2009-08-30 01:41:00",1195691,2.428,22.25,3.779,0.252,18.94,107.5769,18.67,19.71,47.69,0,110.6,13.27,19.49,344.2
"2009-08-30 01:41:30",1195692,2.621,23.47,2.368,0.252,18.95,107.576,18.67,19.7,47.47,0,110.7,13.27,19.49,345.5
"2009-08-30 01:42:00",1195693,2.74,22.2,3.942,0.243,18.9,107.5715,18.66,19.72,47.13,0,110.6,13.27,19.48,344.2
"2009-08-30 01:42:30",1195694,2.988,25.69,3.506,0.3,18.98,107.5687,18.65,19.69,46.76,0,110.6,13.27,19.47,347.7
"2009-08-30 01:43:00",1195695,2.739,20.39,2.691,0.244,18.93,107.5681,18.65,19.68,47.16,0,110.6,13.27,19.47,342.4
"2009-08-30 01:43:30",1195696,3.079,33.37,6.08,0.336,18.93,107.5676,18.65,19.71,47.03,0,110.6,13.27,19.47,355.4
"2009-08-30 01:44:00",1195697,2.026,20.56,5.377,0.469,18.89,107.5676,18.65,19.7,46.93,0,110.6,13.27,19.47,342.6
"2009-08-30 01:44:30",1195698,2.457,19.96,3.217,0.33,18.83,107.5676,18.65,19.69,46.44,0,110.6,13.27,19.47,342.0
"2009-08-30 01:45:00",1195699,2.68,28.15,8.59,0.372,19.14,107.5676,18.65,19.68,46.19,0,110.6,13.27,19.47,350.1
"2009-08-30 01:45:30",1195700,2.388,28.4,7.348,0.343,19.04,107.5676,18.65,19.68,46.6,0,110.6,13.27,19.47,350.4
"2009-08-30 01:46:00",1195701,2.31,31.51,7.897,0.449,19.03,107.5676,18.65,19.68,46.34,0,110.6,13.27,19.47,353.5
"2009-08-30 01:46:30",1195702,2.199,33.63,14.49,0.492,19.18,107.5676,18.65,19.68,46.82,0,110.6,13.27,19.47,355.6